When you browse on this site, cookies collect data to enhance your experience and personalize the content and advertising you see.
Visit our Privacy Policy to learn more. By continuing to use the site, you agree to this use of cookies and data.
  • In Austria
  • List of Countries
  • For 7 days
  • Water Temperature
  • Weather Map
  • News
  • Weather Widgets
  • user-avatar
    Login

    Hourly Weather Lahovka

    Today, 24 October, Thursday

    Time Temperature Precipitation Wind Pressure Humidity
    00:00 +11°C° 0 mm 1 mps 754 mmHg 86%
    01:00 +10°C° 0 mm 1 mps 754 mmHg 88%
    02:00 +10°C° 0 mm 1 mps 754 mmHg 89%
    03:00 +10°C° 0 mm 1 mps 754 mmHg 90%
    04:00 +10°C° 0 mm 1 mps 754 mmHg 90%
    05:00 +8°C° 0 mm 2 mps 754 mmHg 91%
    06:00 +9°C° 0 mm 2 mps 754 mmHg 91%
    07:00 +9°C° 0 mm 2 mps 754 mmHg 90%
    08:00 +9°C° 0 mm 2 mps 754 mmHg 89%
    09:00 +12°C° 0 mm 2 mps 754 mmHg 83%
    10:00 +14°C° 0 mm 2 mps 754 mmHg 77%
    11:00 +16°C° 0 mm 2 mps 754 mmHg 71%
    12:00 +17°C° 0 mm 2 mps 753 mmHg 69%
    13:00 +18°C° 0 mm 2 mps 753 mmHg 67%
    14:00 +18°C° 0 mm 2 mps 753 mmHg 66%
    15:00 +17°C° 0 mm 2 mps 752 mmHg 71%
    16:00 +16°C° 0 mm 2 mps 752 mmHg 77%
    17:00 +15°C° 0 mm 2 mps 752 mmHg 83%
    18:00 +13°C° 0 mm 3 mps 752 mmHg 85%
    19:00 +13°C° 0 mm 3 mps 752 mmHg 87%
    20:00 +12°C° 0 mm 3 mps 752 mmHg 89%
    21:00 +12°C° 0 mm 3 mps 752 mmHg 90%
    22:00 +12°C° 0 mm 3 mps 752 mmHg 92%
    23:00 +11°C° 0 mm 3 mps 752 mmHg 93%

    Tomorrow, 25 October, Friday

    Time Temperature Precipitation Wind Pressure Humidity
    00:00 +11°C° 0 mm 3 mps 752 mmHg 94%
    01:00 +11°C° 0 mm 3 mps 752 mmHg 94%
    02:00 +11°C° 0 mm 3 mps 752 mmHg 95%
    03:00 +11°C° 0 mm 3 mps 752 mmHg 95%
    04:00 +11°C° 0 mm 3 mps 752 mmHg 95%
    05:00 +11°C° 0 mm 3 mps 751 mmHg 95%
    06:00 +11°C° 0 mm 3 mps 751 mmHg 94%
    07:00 +11°C° 0 mm 3 mps 752 mmHg 93%
    08:00 +11°C° 0 mm 3 mps 752 mmHg 91%
    09:00 +13°C° 0 mm 3 mps 752 mmHg 82%
    10:00 +14°C° 0 mm 3 mps 752 mmHg 72%
    11:00 +17°C° 0 mm 3 mps 752 mmHg 62%
    12:00 +18°C° 0 mm 3 mps 752 mmHg 59%
    13:00 +19°C° 0 mm 3 mps 751 mmHg 56%
    14:00 +20°C° 0 mm 3 mps 751 mmHg 53%
    15:00 +18°C° 0 mm 3 mps 751 mmHg 59%
    16:00 +17°C° 0 mm 2 mps 751 mmHg 64%
    17:00 +15°C° 0 mm 2 mps 751 mmHg 70%
    18:00 +15°C° 0 mm 2 mps 751 mmHg 73%
    19:00 +14°C° 0 mm 2 mps 752 mmHg 76%
    20:00 +13°C° 0 mm 2 mps 752 mmHg 79%
    21:00 +13°C° 0 mm 2 mps 752 mmHg 82%
    22:00 +13°C° 0 mm 2 mps 753 mmHg 85%
    23:00 +12°C° 0 mm 2 mps 753 mmHg 88%

    Day after tomorrow, 26 October, Saturday

    Time Temperature Precipitation Wind Pressure Humidity
    00:00 +12°C° 0 mm 2 mps 753 mmHg 90%
    01:00 +12°C° 0 mm 2 mps 754 mmHg 92%
    02:00 +10°C° 0 mm 2 mps 754 mmHg 94%
    03:00 +10°C° 0 mm 2 mps 754 mmHg 94%
    04:00 +10°C° 0 mm 2 mps 754 mmHg 94%
    05:00 +10°C° 0 mm 2 mps 754 mmHg 95%
    06:00 +11°C° 0 mm 1 mps 755 mmHg 94%
    07:00 +11°C° 0 mm 1 mps 755 mmHg 94%
    08:00 +11°C° 0 mm 1 mps 755 mmHg 94%
    09:00 +13°C° 0 mm 1 mps 755 mmHg 88%
    10:00 +14°C° 0 mm 2 mps 755 mmHg 82%
    11:00 +16°C° 0 mm 2 mps 755 mmHg 77%
    12:00 +16°C° 0 mm 3 mps 755 mmHg 73%
    13:00 +17°C° 0 mm 3 mps 755 mmHg 70%
    14:00 +18°C° 0 mm 3 mps 754 mmHg 67%
    15:00 +17°C° 0 mm 3 mps 754 mmHg 71%
    16:00 +15°C° 0 mm 2 mps 754 mmHg 76%
    17:00 +14°C° 0 mm 2 mps 753 mmHg 80%
    18:00 +14°C° 0 mm 2 mps 753 mmHg 81%
    19:00 +13°C° 0 mm 3 mps 753 mmHg 82%
    20:00 +12°C° 0 mm 3 mps 753 mmHg 83%
    21:00 +12°C° 0 mm 3 mps 753 mmHg 84%
    22:00 +12°C° 0 mm 3 mps 753 mmHg 84%
    23:00 +12°C° 0 mm 3 mps 753 mmHg 85%

    , 27 October, Sunday

    Time Temperature Precipitation Wind Pressure Humidity
    00:00 +12°C° 0 mm 3 mps 752 mmHg 86%
    01:00 +12°C° 0 mm 3 mps 752 mmHg 87%
    02:00 +11°C° 0 mm 3 mps 752 mmHg 88%
    03:00 +11°C° 0 mm 3 mps 752 mmHg 89%
    04:00 +11°C° 0 mm 3 mps 751 mmHg 90%
    05:00 +11°C° 0 mm 3 mps 751 mmHg 92%
    06:00 +11°C° 0 mm 3 mps 751 mmHg 90%
    07:00 +11°C° 0 mm 3 mps 751 mmHg 89%
    08:00 +11°C° 0 mm 3 mps 751 mmHg 88%
    09:00 +13°C° 0 mm 4 mps 751 mmHg 80%
    10:00 +14°C° 0 mm 4 mps 750 mmHg 72%
    11:00 +17°C° 0 mm 4 mps 750 mmHg 65%
    12:00 +17°C° 0 mm 5 mps 750 mmHg 62%
    13:00 +17°C° 0 mm 5 mps 750 mmHg 60%
    14:00 +19°C° 0 mm 5 mps 749 mmHg 57%
    15:00 +18°C° 0 mm 4 mps 749 mmHg 62%
    16:00 +17°C° 0 mm 4 mps 749 mmHg 68%
    17:00 +16°C° 0 mm 3 mps 748 mmHg 73%
    18:00 +14°C° 0 mm 3 mps 748 mmHg 75%
    19:00 +13°C° 0 mm 3 mps 748 mmHg 77%
    20:00 +13°C° 0 mm 4 mps 748 mmHg 79%
    21:00 +12°C° 0 mm 3 mps 748 mmHg 81%
    22:00 +12°C° 0 mm 3 mps 748 mmHg 82%
    23:00 +11°C° 0 mm 3 mps 748 mmHg 84%

    27 October, Sunday

    Time Temperature Precipitation Wind Pressure Humidity
    00:00 +12°C° 0 mm 3 mps 752 mmHg 86%
    01:00 +12°C° 0 mm 3 mps 752 mmHg 87%
    02:00 +11°C° 0 mm 3 mps 752 mmHg 88%
    03:00 +11°C° 0 mm 3 mps 752 mmHg 89%
    04:00 +11°C° 0 mm 3 mps 751 mmHg 90%
    05:00 +11°C° 0 mm 3 mps 751 mmHg 92%
    06:00 +11°C° 0 mm 3 mps 751 mmHg 90%
    07:00 +11°C° 0 mm 3 mps 751 mmHg 89%
    08:00 +11°C° 0 mm 3 mps 751 mmHg 88%
    09:00 +13°C° 0 mm 4 mps 751 mmHg 80%
    10:00 +14°C° 0 mm 4 mps 750 mmHg 72%
    11:00 +17°C° 0 mm 4 mps 750 mmHg 65%
    12:00 +17°C° 0 mm 5 mps 750 mmHg 62%
    13:00 +17°C° 0 mm 5 mps 750 mmHg 60%
    14:00 +19°C° 0 mm 5 mps 749 mmHg 57%
    15:00 +18°C° 0 mm 4 mps 749 mmHg 62%
    16:00 +17°C° 0 mm 4 mps 749 mmHg 68%
    17:00 +16°C° 0 mm 3 mps 748 mmHg 73%
    18:00 +14°C° 0 mm 3 mps 748 mmHg 75%
    19:00 +13°C° 0 mm 3 mps 748 mmHg 77%
    20:00 +13°C° 0 mm 4 mps 748 mmHg 79%
    21:00 +12°C° 0 mm 3 mps 748 mmHg 81%
    22:00 +12°C° 0 mm 3 mps 748 mmHg 82%
    23:00 +11°C° 0 mm 3 mps 748 mmHg 84%

    28 October, Monday

    Time Temperature Precipitation Wind Pressure Humidity
    00:00 +11°C° 0 mm 3 mps 747 mmHg 86%
    01:00 +11°C° 0 mm 3 mps 747 mmHg 88%
    02:00 +10°C° 0 mm 3 mps 747 mmHg 90%
    03:00 +10°C° 0 mm 3 mps 747 mmHg 90%
    04:00 +10°C° 0 mm 3 mps 747 mmHg 90%
    05:00 +10°C° 0 mm 3 mps 747 mmHg 90%
    06:00 +10°C° 0 mm 3 mps 747 mmHg 89%
    07:00 +11°C° 0 mm 4 mps 747 mmHg 89%
    08:00 +11°C° 0 mm 4 mps 747 mmHg 89%
    09:00 +11°C° 0 mm 4 mps 748 mmHg 83%
    10:00 +12°C° 0 mm 4 mps 748 mmHg 76%
    11:00 +13°C° 0 mm 4 mps 748 mmHg 70%
    12:00 +12°C° 0 mm 4 mps 748 mmHg 68%
    13:00 +12°C° 0 mm 4 mps 748 mmHg 66%
    14:00 +11°C° 0 mm 3 mps 748 mmHg 64%
    15:00 +11°C° 0 mm 3 mps 748 mmHg 66%
    16:00 +10°C° 0 mm 2 mps 748 mmHg 68%
    17:00 +9°C° 0 mm 2 mps 749 mmHg 70%
    18:00 +9°C° 0 mm 2 mps 749 mmHg 72%
    19:00 +8°C° 0 mm 2 mps 749 mmHg 74%
    20:00 +9°C° 0 mm 1 mps 749 mmHg 76%
    21:00 +8°C° 0 mm 1 mps 749 mmHg 77%
    22:00 +8°C° 0 mm 1 mps 750 mmHg 77%
    23:00 +8°C° 0 mm 1 mps 750 mmHg 78%

    29 October, Tuesday

    Time Temperature Precipitation Wind Pressure Humidity
    00:00 +7°C° 0 mm 1 mps 750 mmHg 78%
    01:00 +7°C° 0 mm 1 mps 750 mmHg 79%
    02:00 +6°C° 0 mm 0 mps 750 mmHg 80%
    03:00 +5°C° 0 mm 0 mps 750 mmHg 80%
    04:00 +6°C° 0 mm 1 mps 750 mmHg 80%
    05:00 +6°C° 0 mm 1 mps 749 mmHg 80%
    06:00 +7°C° 0 mm 1 mps 750 mmHg 79%
    07:00 +7°C° 0 mm 1 mps 750 mmHg 79%
    08:00 +7°C° 0 mm 1 mps 750 mmHg 78%
    09:00 +8°C° 0 mm 1 mps 750 mmHg 76%
    10:00 +9°C° 0 mm 1 mps 750 mmHg 74%
    11:00 +9°C° 0 mm 1 mps 750 mmHg 72%
    12:00 +9°C° 0.1 mm 1 mps 750 mmHg 73%
    13:00 +9°C° 0.1 mm 1 mps 750 mmHg 74%
    14:00 +9°C° 0.1 mm 1 mps 749 mmHg 74%
    15:00 +8°C° 0.1 mm 0 mps 749 mmHg 77%
    16:00 +8°C° 0.1 mm 0 mps 749 mmHg 79%
    17:00 +7°C° 0.1 mm 0 mps 749 mmHg 81%
    18:00 +7°C° 0.1 mm 0 mps 750 mmHg 82%
    19:00 +7°C° 0.1 mm 0 mps 750 mmHg 82%
    20:00 +6°C° 0.1 mm 0 mps 750 mmHg 83%
    21:00 +7°C° 0 mm 1 mps 750 mmHg 85%
    22:00 +6°C° 0 mm 1 mps 750 mmHg 86%
    23:00 +6°C° 0 mm 1 mps 751 mmHg 88%
    Show more